Погода в Лениногорске

Погода в Лениногорске : погода сейчас, прогноз погоды и архив. Всё, что Вы хотите узнать о погоде в Лениногорске!

Поиск расширенной информации на нашем сайте:

Другие новости

Новости СМИ2

Главная страница сайта

Новости сайта

02.10.2013

Напоминаем, что на нашем новом сайте вы можете получить высокодетализированные прогнозы погоды по пунктам России, СНГ и мира (включающие важные для авиации метеовеличины, такие как направление и скорость ветра, видимость, явления погоды, количество и форма облачности, нижняя и верхняя граница облачности), а также ознакомиться с разнообразными материалами по авиационной метеорологии и подборкой полезных ссылок на эту тему.

Сайт Метеоцентр.Азия посвящён разработке технологий оптимизации авиаметеорологического обслуживания, включая проектирование и перспективное создание нескольких автоматизированных авиаметеорологических систем:
- система выпуска высокодетальных прогностических карт явлений погоды для нижнего воздушного пространства по России и ближнему зарубежью;
- система верификации прогнозов TAF (выпускаемых синоптиками официальных АМСГ РФ и ближнего зарубежья) и AUTOTAF (выпускаемых сайтом Метеоцентр.Азия) - выявление ошибок, онлайн-сопоставление с фактической погодой METAR, автоматическое внесение коррективов в прогнозы при резком отклонении фактической погоды от прогноза, подсчёт оправдываемости прогнозов по элементам и в целом;
- система обработки, анализа и отображения авиаметеорологической информации для применения провайдерами метеорологической информации.

Рекомендуем: работа директором смотреть подробности

Погода в Лениногорске - сегодня

Время (UTC), дата Ветер
(°,м/с) 
Видим.   Явления Облачность Т
(°С)
Тd
(°С)
f(%) Тe
(°С)
Pmin
(гПа)
dP
(гПа)
Po
(мм)
O2
(г/м3)
Тmin Tmax R s Состояние
почвы
03 20.04.17 тихо ()   20000 м    6/0 верхняя 
[Ci fib]
+10 +2.3 59 +10  1022.6  696  270           
06 20.04.17 330 (СЗ) 20000 м    6/3 1000 м верхняя 
[Cu med, cong|Ci fib]
+16.3 +2.1 38 +17  1019.8  -0.6  696  264  -0.3         
09 20.04.17 280 (З) 20000 м    6/6 1000 м 
[Cu med, cong]
+19 -1.3 25 +19  1018.1  -0.8  695  262           
12 20.04.17 250 (З) 20000 м    ясно 
+16.8 -1.4 29 +18  1018.1  -0.7  695  264           
15 20.04.17 140 (ЮВ) н/о    ясно 
+8.8 -1.1 50 +10  1021.4  0.6  695  271    +20.2       
18 20.04.17 090 (В) н/о    ясно 
+2.8 -1.5 73 +4  1023.4  -0.1  695  277    +20.2       
21 20.04.17 090 (В) н/о    ясно 
+2.2 -1.6 76 +3  1022.3  -1.2  694  278           
00 21.04.17 080 (В) 20000 м    ясно 
+1.4 -1.9 79 +2  1022.5  -0.1  694  278           
03 21.04.17 тихо ()   20000 м    ясно 
+11.2 +1.1 50 +11  1018.9  -0.1  694  268           
06 21.04.17 160 (Ю) 20000 м    ясно 
+18 +0.1 30 +19  1015.2  -1.3  693  262  +1         
09 21.04.17 200 (Ю) 20000 м    ясно 
+20.6 +0 25 +21  1013  -1.3  692  259           
12 21.04.17 230 (ЮЗ) 20000 м    ясно 
+20 -1.5 23 +20  1012.1  -1  692  260           
15 21.04.17 100 (В) н/о    ясно 
+9.6 +2.9 63 +10  1015.4  -0.1  691  269    +21.5       
18 21.04.17 090 (В) н/о    ясно 
+3.8 -0.9 71 +5  1017.1  -0.3  691  275    +21.5       
21 21.04.17 090 (В) н/о    ясно 
+2.7 -1.3 75 +3  1016.6  -0.8  691  276           
00 22.04.17 090 (В) 20000 м    4/0 верхняя 
[Ci fib]
+3.6 -1.4 70 +2  1015.4  -0.8  690  274           
03 22.04.17 030 (СВ) 20000 м    8/0 средняя, верхняя 
[Ac trans|Ci fib]
+15.6 +2 40 +16  1010.8  -0.4  690  262           
06 22.04.17 200 (Ю) 20000 м    9/6 1000 м средняя, верхняя 
[Cu med, cong|Ac lent|Ci fib]
+20.4 -3.1 20 +20  1009.2  -0.2  690  259  +2.4         
09 22.04.17 290 (З) 20000 м    9/9 1000 м кучево-дожд. 
[Cb calv]
+17 +3.6 41 +17  1010.1  690  261           
12 22.04.17 290 (З) 20000 м  в посл. час ливневой дождь  9/9 600 м кучево-дожд. 
[Cb calv]
+10 +6.5 79 +10  1013.3  0.9  690  267           
15 22.04.17 320 (СЗ) н/о  слаб. ливневой дождь  10/10 600 м кучево-дожд. 
[Cb calv]
+9.4 +6.5 82 +9  1013.8  0.2  690  268    +21.6     
18 22.04.17 120 (ЮВ) н/о  слаб. ливневой дождь  10/10 600 м кучево-дожд. 
[Cb calv]
+8.8 +6.1 83 +9  1015.2  1.1  691  269    +21.6     
21 22.04.17 140 (ЮВ) н/о  слаб. ливневой дождь  10/10 600 м кучево-дожд. 
[Cb calv]
+8.2 +5.9 85 +8  1017.1  1.6  692  270           
00 23.04.17 100 (В) 20000 м  {ливн. осадки}  9/9 600 м кучево-дожд. 
[Cb calv]
+7.6 +4.1 78 +7  1020.4  2.7  694  271           
03 23.04.17 250 (З) 20000 м  {ливн. осадки}  9/4 1000 м средняя 
[Sc diur, vesp|Ac trans]
+7.8 +3 72 +7  1023.5  2.8  697  272      18     
Время (UTC), дата Ветер
(°,м/с) 
Видим.   Явления Облачность Т
(°С)
Тd
(°С)
f(%) Тe
(°С)
Pmin
(гПа)
dP
(гПа)
Po
(мм)
O2
(г/м3)
Тmin Tmax R s Состояние
почвы

Для получения пояснительной информации подведите курсор к названию столбца.

ПОГОДА в Лениногорске - архив

Всё, что Вы хотите узнать о погоде в Лениногорске - удобно и подробно!

Выберите нужную дату (начиная с 1 января 2015* года) и нажмите кнопку "Найти".
Будут отображены архивные сводки погоды по пункту Лениногорск, начиная с указанной даты.


Отображать данные в формате CSV (для использования в таблицах Excel)


Внимание! Наш архив погоды предназначен исключительно для личного некоммерческого использования в познавательных целях. Если Вам необходимы официальные справки о состоянии погоды (для производственных, юридических, коммерческих и т.п. целей), обращайтесь в органы Росгидромета.

*Примечание: данная дата относится к архиву по метеостанциям СССР (Россия, СНГ, Балтия).
Архив по метеостанциям Зарубежной Европы и Азии (кроме Китая) хранится 10 дней, по другим регионам земного шара (Китай, Африка, Америка, Австралия, Океания) - 1 день.

Лениногорск - район местоположения метеостанции


Название, широта, долгота, высота метеостанции:
Лениногорск 50.3°ш. 83.6°д. 811 м над ур. моря [Казахстан]

Дополнительная информация

В oтличие oт бoльшинства пoгoдных сайтoв мы публикуем пoдрoбную метеoинфoрмацию в детальнoм прoфессиoнальнoм фoрмате.

Характеристики температуры и влажнoсти вoздуха измеряются на высoте 2 м в тени вдали oт зданий и деревьев.
Скoрoсть ветра измеряется на высoте 10 м (на урoвне рoста челoвека скoрoсть ветра ниже в 1.5-2 раза). Если метеoстанция нахoдится в гoрoде или в лесу, тo скoрoсть ветра занижена на 2-4 м/с пo сравнению с oткрытым местoм. Скoрoсть ветра над акватoриями крупных рек и oзёр, а также на вершинах хoлмoв на 2-5 м/с выше, чем в oбычных услoвиях.
Атмoсфернoе давление в разных тoчках местнoсти мoжет значительнo oтличаться oт давления на метеoстанции, в зависимoсти oт услoвий рельефа (при пoдъёме на 10 м давление пoнижается примернo на 1 мм рт.ст.).